Content
SEND FEEDBACK

Daily
Averages
Monthly
Summary
Malaysia

TAWAU, MALAYSIA


Home > Asia > Malaysia
Elevation: 58 feet     Latitude: 04 15N     Longitude: 117 53E

WEATHER
 
SELECT A DAY
Number of Records: 121,741;   Date Range: 6/29/00 - 7/9/14
 
SHARE

PRINT THIS DATA

[ ← Previous Day ]
WEATHER ALMANAC - FEBRUARY 13, 2013
[ Next Day → ]
[ °C ]   °F
Weather ElementAverageHighLow
Temperature78.8 °F86 °F (12:00 pm)73.4 °F (7:00 pm)
Dewpoint73.5 °F77 °F (9:00 am)69.8 °F (6:00 pm)
Humidity83.4 %94 % (2:00 am)63 % (11:00 am)
Barometer29.79 in29.83 in (9:00 am)29.74 in (2:00 pm)
Wind Speed3.9 mph11.5 mph (6:00 pm)
Weather ElementAverage
Visibility6.3 mi
Wind DirectionWSW (244.5 °)

Weather ElementTotal
Precipitation---
Cooling Degree Days14.7 (Base 65)
Growing Degree Days29.7 (Base 50)
Averaged from 31 records on February 13, 2013
WEATHER CONDITIONS BREAKOUT
WIND DIRECTION BREAKOUT
WEATHER BY HOUR - FEBRUARY 13, 2013
[ °C ]   °F
Local TimeTemperatureDewpointHumidityBarometerVisibilityWind DirectionWind SpeedGust SpeedPrecipitationEventsConditions
1:00 AM77.0 °F73.4 °F89 %29.80 in6.2 miNorth (350°)2.3 mphMostly Cloudy
2:00 AM76.0 °F73.0 °F88 %29.79 in7.0 miNorth3.5 mphScattered Clouds
2:00 AM75.2 °F73.4 °F94 %29.77 in6.2 miNorth (360°)3.5 mphMostly Cloudy
3:00 AM75.2 °F73.4 °F94 %29.77 in6.2 miNorth (350°)2.3 mphMostly Cloudy
4:00 AM75.2 °F73.4 °F94 %29.77 in6.2 miNNW (340°)2.3 mphMostly Cloudy
5:00 AM75.0 °F72.0 °F88 %29.78 in7.0 miNorth (350°)2.3 mphScattered Clouds
5:00 AM75.2 °F71.6 °F89 %29.77 in6.2 miNorth (350°)2.3 mphMostly Cloudy
6:00 AM75.2 °F71.6 °F89 %29.80 in6.2 miNorth (350°)3.5 mphMostly Cloudy
7:00 AM75.2 °F71.6 °F89 %29.80 in6.2 miNNW (340°)3.5 mphMostly Cloudy
8:00 AM76.0 °F74.0 °F91 %29.82 in7.0 miNorth (350°)2.3 mphScattered Clouds
8:00 AM77.0 °F73.4 °F89 %29.80 in6.2 miNorth (350°)2.3 mphMostly Cloudy
9:00 AM80.6 °F77.0 °F89 %29.83 in6.2 miWNW (300°)1.2 mphMostly Cloudy
10:00 AM84.2 °F73.4 °F70 %29.83 in6.2 miNNE (30°)6.9 mphMostly Cloudy
11:00 AM85.0 °F74.0 °F63 %29.83 in7.0 miNE (40°)5.8 mphPartly Cloudy
11:00 AM84.2 °F73.4 °F70 %29.83 in6.2 miNE (40°)5.8 mphMostly Cloudy
12:00 PM86.0 °F75.2 °F70 %29.80 in6.2 miNE (50°)5.8 mphMostly Cloudy
1:00 PM86.0 °F75.2 °F70 %29.77 in6.2 miSSE (160°)4.6 mphMostly Cloudy
2:00 PM85.0 °F75.0 °F65 %29.77 in7.0 miSSE (160°)6.9 mphPartly Cloudy
2:00 PM84.2 °F75.2 °F74 %29.74 in6.2 miSSE (160°)6.9 mphMostly Cloudy
3:00 PM86.0 °F75.2 °F70 %29.74 in6.2 miSSW (210°)6.9 mphMostly Cloudy
4:00 PM84.2 °F77.0 °F79 %29.74 in6.2 miSouth (180°)5.8 mphMostly Cloudy
5:00 PM83.0 °F76.0 °F73 %29.76 in6.0 miWest (280°)4.6 mphPartly Cloudy
5:00 PM84.2 °F75.2 °F74 %29.74 in5.6 miWest (280°)4.6 mphMostly Cloudy
6:00 PM75.2 °F69.8 °F83 %29.77 in5.0 miENE (60°)11.5 mphRain-ThunderstormLight Thunderstorms and Rain
7:00 PM73.4 °F71.6 °F94 %29.80 in5.6 miWNW (290°)4.6 mphRain-ThunderstormLight Thunderstorms and Rain
8:00 PM75.0 °F72.0 °F87 %29.81 in7.0 miWest (260°)1.2 mphThunderstormLight Thunderstorm
8:00 PM75.2 °F71.6 °F89 %29.80 in6.2 miWest (260°)1.2 mphMostly Cloudy
9:00 PM75.2 °F73.4 °F94 %29.80 in6.2 miNNW (340°)2.3 mphMostly Cloudy
10:00 PM75.2 °F73.4 °F94 %29.80 in6.2 miNNW (330°)2.3 mphMostly Cloudy
11:00 PM74.0 °F72.0 °F93 %29.82 in7.0 miNNW (330°)1.2 mphPartly Cloudy
11:00 PM75.2 °F71.6 °F89 %29.80 in6.2 miNNW (330°)1.2 mphMostly Cloudy
Hourly data recorded from WBKW, located miles away from Tawau, Malaysia







STORIES FROM OUR PARTNERS